FW6471 Weather Reports


Display with metric or nautical units.
time (UTC)temp
F
wind
direction
speed
MPH
gust
MPH
rain 1hr
in
rain 24hr
in
rain mn
in
humidity
%
barometer
mb
20260906152605 88 320 0.0 0.0 0.00 0.00 0.00 77 1014.8
20260906152105 88 320 0.0 0.0 0.00 0.00 0.00 77 1014.8
20260906151605 88 335 0.0 0.0 0.00 0.00 0.00 77 1014.7
20260906151105 87 335 0.0 0.0 0.00 0.00 0.00 79 1014.8
20260906150604 87 321 0.0 0.0 0.00 0.00 0.00 82 1014.9
20260906145605 87 326 0.0 0.0 0.00 0.00 0.00 81 1015.1
20260906145104 86 273 0.0 0.0 0.00 0.00 0.00 85 1015.0
20260906144105 84 205 0.0 0.0 0.00 0.00 0.00 86 1015.0
20260906143605 84 204 0.0 0.0 0.00 0.00 0.00 86 1015.1
20260906143104 85 203 0.0 0.0 0.00 0.00 0.00 86 1015.1
20260906142104 85 203 0.0 0.0 0.00 0.00 0.00 85 1015.0
20260906141105 85 203 0.0 0.0 0.00 0.00 0.00 85 1015.1
20260906140604 84 228 0.0 0.0 0.00 0.00 0.00 86 1014.9
20260906140108 84 288 0.0 0.0 0.00 0.00 0.00 87 1015.1
20260906135604 83 201 0.0 0.0 0.00 0.00 0.00 88 1015.1
20260906135105 83 183 0.0 0.0 0.00 0.00 0.00 90 1015.0
20260906133605 81 357 0.0 0.0 0.00 0.00 0.00 93 1015.0
20260906133104 80 291 0.0 0.0 0.00 0.00 0.00 94 1015.0
20260906132104 79 321 0.0 0.0 0.00 0.00 0.00 94 1015.1
20260906131604 79 321 0.0 0.0 0.00 0.00 0.00 94 1015.1
20260906131105 79 321 0.0 0.0 0.00 0.00 0.00 95 1015.1
20260906130605 78 321 0.0 0.0 0.00 0.00 0.00 95 1015.0
20260906130108 78 321 0.0 0.0 0.00 0.00 0.00 95 1015.0
20260906125604 78 321 0.0 0.0 0.00 0.00 0.00 95 1015.1
20260906125105 78 321 0.0 0.0 0.00 0.00 0.00 95 1015.2
20260906124605 78 321 0.0 0.0 0.00 0.00 0.00 95 1015.2
20260906124104 77 321 0.0 0.0 0.00 0.00 0.00 96 1015.1
20260906123604 77 321 0.0 0.0 0.00 0.00 0.00 95 1015.1
20260906123105 77 321 0.0 0.0 0.00 0.00 0.00 96 1015.1
20260906122605 76 321 0.0 0.0 0.00 0.00 0.00 95 1015.1
20260906122105 76 321 0.0 0.0 0.00 0.00 0.00 95 1015.1
20260906121604 76 321 0.0 0.0 0.00 0.00 0.00 95 1015.0
20260906120108 75 321 0.0 0.0 0.00 0.00 0.00 95 1014.6
20260906115104 75 321 0.0 0.0 0.00 0.00 0.00 95 1014.4
20260906114604 75 321 0.0 0.0 0.00 0.00 0.00 95 1014.4
20260906114105 74 321 0.0 0.0 0.00 0.00 0.00 95 1014.3
20260906113604 74 321 0.0 0.0 0.00 0.00 0.00 95 1014.3
20260906113104 74 321 0.0 0.0 0.00 0.00 0.00 95 1014.2
20260906111604 74 321 0.0 0.0 0.00 0.00 0.00 94 1014.1
20260906111104 74 321 0.0 0.0 0.00 0.00 0.00 94 1014.0
20260906105604 74 321 0.0 0.0 0.00 0.00 0.00 94 1013.9
20260906104104 74 321 0.0 0.0 0.00 0.00 0.00 94 1013.8
20260906103605 74 321 0.0 0.0 0.00 0.00 0.00 94 1013.7
20260906103104 75 321 0.0 0.0 0.00 0.00 0.00 94 1013.5
20260906102604 75 321 0.0 0.0 0.00 0.00 0.00 94 1013.5
20260906101604 75 321 0.0 0.0 0.00 0.00 0.00 94 1013.4
20260906101104 74 321 0.0 0.0 0.00 0.00 0.00 94 1013.4
20260906100604 74 321 0.0 0.0 0.00 0.00 0.00 94 1013.3
20260906100108 74 321 0.0 0.0 0.00 0.00 0.00 94 1013.3
20260906095604 75 321 0.0 0.0 0.00 0.00 0.00 94 1013.2
20260906095104 75 321 0.0 0.0 0.00 0.00 0.00 94 1013.2
20260906094604 75 321 0.0 0.0 0.00 0.00 0.00 94 1013.2
20260906094104 75 321 0.0 0.0 0.00 0.00 0.00 94 1013.1
20260906093604 75 321 0.0 0.0 0.00 0.00 0.00 94 1013.1
20260906093104 75 321 0.0 0.0 0.00 0.00 0.00 94 1013.0
20260906092104 75 321 0.0 0.0 0.00 0.00 0.00 94 1013.1
20260906091604 75 321 0.0 0.0 0.00 0.00 0.00 94 1013.1
20260906091105 75 321 0.0 0.0 0.00 0.00 0.00 94 1013.0
20260906090604 75 321 0.0 0.0 0.00 0.00 0.00 94 1012.9
20260906090109 75 321 0.0 0.0 0.00 0.00 0.00 94 1012.9
20260906085604 75 321 0.0 0.0 0.00 0.00 0.00 94 1012.9
20260906085104 75 321 0.0 0.0 0.00 0.00 0.00 94 1012.8
20260906084603 75 321 0.0 0.0 0.00 0.00 0.00 94 1012.8
20260906083605 75 321 0.0 0.0 0.00 0.00 0.00 94 1012.7
20260906082104 75 321 0.0 0.0 0.00 0.00 0.00 94 1012.6
20260906081104 75 321 0.0 0.0 0.00 0.00 0.00 94 1012.6
20260906080604 75 321 0.0 0.0 0.00 0.00 0.00 94 1012.6
20260906080108 75 321 0.0 0.0 0.00 0.00 0.00 94 1012.6
20260906075604 75 321 0.0 0.0 0.00 0.00 0.00 94 1012.6
20260906075104 75 321 0.0 0.0 0.00 0.00 0.00 94 1012.6
20260906074604 75 321 0.0 0.0 0.00 0.00 0.00 94 1012.6
20260906074104 75 321 0.0 0.0 0.00 0.00 0.00 94 1012.7
20260906073604 75 321 0.0 0.0 0.00 0.00 0.00 94 1012.6
20260906073104 75 321 0.0 0.0 0.00 0.00 0.00 94 1012.6
20260906072604 75 321 0.0 0.0 0.00 0.00 0.00 94 1012.7
20260906072104 76 321 0.0 0.0 0.00 0.00 0.00 94 1012.8
20260906071604 76 321 0.0 0.0 0.00 0.00 0.00 94 1012.8
20260906071104 76 321 0.0 0.0 0.00 0.00 0.00 94 1012.9
20260906070604 76 321 0.0 0.0 0.00 0.00 0.00 94 1013.0
20260906070108 76 321 0.0 0.0 0.00 0.00 0.00 93 1013.1
20260906065604 76 321 0.0 0.0 0.00 0.00 0.00 93 1013.1
20260906065104 76 321 0.0 0.0 0.00 0.00 0.00 93 1013.2
20260906064604 76 321 0.0 0.0 0.00 0.00 0.00 93 1013.3
20260906064103 76 321 0.0 0.0 0.00 0.00 0.00 93 1013.3
20260906063103 76 321 0.0 0.0 0.00 0.00 0.00 93 1013.6
20260906062604 76 321 0.0 0.0 0.00 0.00 0.00 93 1013.7
20260906061603 76 321 0.0 0.0 0.00 0.00 0.00 93 1014.0
20260906060604 76 321 0.0 0.0 0.00 0.00 0.00 93 1014.2
20260906055604 76 321 0.0 0.0 0.00 0.00 0.00 93 1014.1
20260906055103 76 321 0.0 0.0 0.00 0.00 0.00 93 1014.1
20260906054605 76 321 0.0 0.0 0.00 0.00 0.00 93 1014.0
20260906053604 76 321 0.0 0.0 0.00 0.00 0.00 93 1014.2
20260906053103 76 321 0.0 0.0 0.00 0.00 0.00 93 1014.2
20260906052603 76 321 0.0 0.0 0.00 0.00 0.00 93 1014.3
20260906052104 76 321 0.0 0.0 0.00 0.00 0.00 93 1014.3
20260906051603 77 321 0.0 0.0 0.00 0.00 0.00 93 1014.4
20260906050110 77 321 0.0 0.0 0.00 0.00 0.00 93 1014.5
20260906045606 77 321 0.0 0.0 0.00 0.00 0.00 93 1014.4
20260906045106 77 321 0.0 0.0 0.00 0.00 0.00 93 1014.5
20260906044606 77 321 0.0 0.0 0.00 0.00 0.00 93 1014.6
20260906044105 77 321 0.0 0.0 0.00 0.00 0.00 93 1014.7
20260906043606 77 321 0.0 0.0 0.00 0.00 0.00 93 1014.8
20260906043105 77 321 0.0 0.0 0.00 0.00 0.00 93 1014.8
20260906042606 77 321 0.0 0.0 0.00 0.00 0.00 93 1014.7
20260906042106 77 321 0.0 0.0 0.00 0.00 0.00 93 1014.6
20260906041606 77 321 0.0 0.0 0.00 0.00 0.00 93 1014.6
20260906041106 77 321 0.0 0.0 0.00 0.00 0.00 92 1014.7
20260906035106 77 321 0.0 0.0 0.00 0.00 0.00 92 1014.9
20260906034606 77 321 0.0 0.0 0.00 0.00 0.00 92 1014.9
20260906034105 77 321 0.0 0.0 0.00 0.00 0.00 92 1014.8
20260906033106 78 321 0.0 0.0 0.00 0.00 0.00 92 1014.7
20260906032606 78 321 0.0 0.0 0.00 0.00 0.00 92 1014.8
20260906032106 78 321 0.0 0.0 0.00 0.00 0.00 92 1014.7
20260906031605 78 321 0.0 0.0 0.00 0.00 0.00 92 1014.7
20260906031106 78 321 0.0 0.0 0.00 0.00 0.00 92 1014.7
20260906030606 78 321 0.0 0.0 0.00 0.00 0.00 91 1014.7
20260906030109 78 321 0.0 0.0 0.00 0.00 0.00 91 1014.7
20260906025605 78 321 0.0 0.0 0.00 0.00 0.00 91 1014.7
20260906024605 78 321 0.0 0.0 0.00 0.00 0.00 91 1014.6
20260906024107 78 321 0.0 0.0 0.00 0.00 0.00 91 1014.7
20260906023606 78 321 0.0 0.0 0.00 0.00 0.00 91 1014.7
20260906023105 78 321 0.0 0.0 0.00 0.00 0.00 91 1014.7
20260906021105 79 321 0.0 0.0 0.00 0.00 0.00 90 1014.7
20260906020605 79 321 0.0 0.0 0.00 0.00 0.00 90 1014.7
20260906020109 79 321 0.0 0.0 0.00 0.00 0.00 90 1014.6
20260906015606 79 321 0.0 0.0 0.00 0.00 0.00 90 1014.5
20260906015106 80 321 0.0 0.0 0.00 0.00 0.00 89 1014.6
20260906014606 80 321 0.0 0.0 0.00 0.00 0.00 89 1014.6
20260906014106 80 321 0.0 0.0 0.00 0.00 0.00 89 1014.4
20260906013605 80 321 0.0 0.0 0.00 0.00 0.00 89 1014.3
20260906013105 80 321 0.0 0.0 0.00 0.00 0.00 88 1014.1
20260906012605 80 321 0.0 0.0 0.00 0.00 0.00 88 1014.1
20260906012106 81 321 0.0 0.0 0.00 0.00 0.00 88 1014.1
20260906011606 81 321 0.0 0.0 0.00 0.00 0.00 88 1014.1
20260906011105 81 321 0.0 0.0 0.00 0.00 0.00 87 1014.1
20260906010110 81 321 0.0 0.0 0.00 0.00 0.00 87 1014.0
20260906005606 82 321 0.0 0.0 0.00 0.00 0.00 87 1014.0
20260906005105 82 321 0.0 0.0 0.00 0.00 0.00 86 1013.8
20260906004605 82 321 0.0 0.0 0.00 0.00 0.00 86 1013.7
20260906004106 82 321 0.0 0.0 0.00 0.00 0.00 85 1013.8
20260906003605 83 321 0.0 0.0 0.00 0.00 0.00 85 1013.8
20260906003105 83 321 0.0 0.0 0.00 0.00 0.00 84 1013.7
20260906002106 83 321 0.0 0.0 0.00 0.00 0.00 83 1013.8
20260906001605 83 321 0.0 0.0 0.00 0.00 0.00 83 1013.8
20260906001105 84 321 0.0 0.0 0.00 0.00 0.00 83 1013.8
20260906000606 84 321 0.0 0.0 0.00 0.00 0.00 83 1013.7
20260906000109 84 321 0.0 0.0 0.00 0.00 0.00 83 1013.7
20260905235606 84 321 0.0 0.0 0.00 0.00 0.00 82 1013.6
20260905235106 85 321 0.0 0.0 0.00 0.00 0.00 82 1013.8
20260905234605 85 321 0.0 0.0 0.00 0.00 0.00 81 1013.8
20260905233105 86 308 0.0 0.0 0.00 0.00 0.00 80 1013.7
20260905232605 86 312 0.0 0.0 0.00 0.00 0.00 79 1013.7
20260905232105 86 301 0.0 0.0 0.00 0.00 0.00 78 1013.6
20260905230605 87 314 0.0 0.0 0.00 0.00 0.00 77 1013.7
20260905230109 87 295 0.0 0.0 0.00 0.01 0.00 76 1013.8
20260905225105 88 327 0.0 0.0 0.00 0.02 0.00 75 1013.8
20260905224106 88 336 0.0 1.0 0.00 0.04 0.00 75 1013.8
20260905222605 88 324 0.0 1.0 0.00 0.18 0.00 73 1013.6
20260905222105 88 314 1.0 5.0 0.00 0.23 0.00 72 1013.7
20260905221605 89 329 3.0 7.0 0.00 0.29 0.00 72 1013.7
20260905220605 89 320 1.0 6.0 0.00 0.40 0.00 72 1013.8
20260905220109 89 298 1.0 5.0 0.00 0.40 0.00 72 1013.7
20260905215605 89 330 0.0 7.0 0.00 0.40 0.00 71 1013.7
20260905214605 89 291 0.0 8.0 0.00 0.40 0.00 70 1013.7
20260905213105 89 312 2.0 8.0 0.00 0.40 0.00 71 1013.6
20260905212605 89 308 3.0 9.0 0.00 0.40 0.00 72 1013.7
20260905212105 89 286 2.0 8.0 0.00 0.40 0.00 72 1013.7
20260905211606 89 291 1.0 5.0 0.00 0.40 0.00 72 1013.6
20260905211105 90 288 1.0 8.0 0.00 0.40 0.00 71 1013.7
20260905210605 90 312 1.0 6.0 0.00 0.40 0.00 70 1013.7
20260905204605 90 318 5.0 9.0 0.00 0.40 0.00 69 1013.5
20260905204105 90 311 3.0 9.0 0.00 0.40 0.00 70 1013.5
20260905203605 91 326 5.0 10.0 0.00 0.40 0.00 68 1013.6
20260905203105 91 320 3.0 7.0 0.00 0.40 0.00 68 1013.6
20260905202105 91 315 1.0 8.0 0.00 0.40 0.00 71 1013.5
20260905201605 91 317 0.0 7.0 0.00 0.40 0.00 70 1013.6
20260905200605 91 311 3.0 8.0 0.00 0.40 0.00 69 1013.7
20260905195605 91 304 2.0 8.0 0.00 0.40 0.00 70 1013.7
20260905195105 91 297 1.0 3.0 0.00 0.40 0.00 71 1013.6
20260905194605 91 320 0.0 5.0 0.00 0.40 0.00 70 1013.7
20260905193606 92 316 1.0 5.0 0.00 0.40 0.00 70 1013.8
20260905193105 92 316 0.0 1.0 0.00 0.40 0.00 70 1013.8
20260905192604 92 334 2.0 6.0 0.00 0.40 0.00 69 1013.8
20260905192105 92 311 1.0 7.0 0.00 0.40 0.00 69 1014.0
20260905191605 92 267 2.0 7.0 0.00 0.40 0.00 69 1014.0
20260905191105 92 321 2.0 7.0 0.00 0.40 0.00 69 1014.0
20260905190605 92 315 3.0 7.0 0.00 0.40 0.00 70 1014.0
20260905190109 91 325 1.0 10.0 0.00 0.40 0.00 72 1014.0
20260905185605 91 313 1.0 10.0 0.00 0.40 0.00 72 1014.0
20260905185105 91 325 2.0 7.0 0.00 0.40 0.00 70 1013.9
20260905184605 91 325 5.0 12.0 0.00 0.40 0.00 70 1014.1
20260905183604 91 333 6.0 12.0 0.00 0.40 0.00 71 1014.2
20260905183105 91 309 5.0 13.0 0.00 0.40 0.00 71 1014.3
20260905182605 91 334 2.0 7.0 0.00 0.40 0.00 72 1014.3
20260905182104 91 333 2.0 8.0 0.00 0.40 0.00 72 1014.4
20260905181605 91 312 1.0 6.0 0.00 0.40 0.00 73 1014.4
20260905181105 90 311 4.0 8.0 0.00 0.40 0.00 73 1014.5
20260905180605 90 319 4.0 9.0 0.00 0.40 0.00 73 1014.5
20260905175605 90 296 0.0 7.0 0.00 0.40 0.00 74 1014.5
20260905175105 90 324 3.0 7.0 0.00 0.40 0.00 72 1014.6
20260905174605 89 321 2.0 7.0 0.00 0.40 0.00 72 1014.7
20260905174105 89 331 2.0 9.0 0.00 0.40 0.00 72 1014.7
20260905173604 90 320 2.0 8.0 0.00 0.40 0.00 71 1014.9
20260905172605 92 316 0.0 3.0 0.00 0.40 0.00 71 1015.0
20260905172105 92 157 1.0 6.0 0.00 0.40 0.00 70 1015.1
20260905171605 92 335 2.0 7.0 0.00 0.40 0.00 69 1015.1
20260905171104 92 342 0.0 5.0 0.00 0.40 0.00 73 1015.1
20260905170108 91 307 2.0 6.0 0.00 0.40 0.00 73 1015.2
20260905165605 91 296 0.0 2.0 0.00 0.40 0.00 74 1015.3
20260905165105 90 198 0.0 6.0 0.00 0.40 0.00 75 1015.4
20260905164604 89 299 1.0 3.0 0.00 0.40 0.00 77 1015.5
20260905164105 89 214 0.0 1.0 0.00 0.40 0.00 75 1015.6
20260905163605 89 243 0.0 1.0 0.00 0.40 0.00 74 1015.7
20260905163105 89 316 0.0 2.0 0.00 0.40 0.00 78 1015.8
20260905162604 89 320 0.0 1.0 0.00 0.40 0.00 76 1015.9
20260905162105 90 320 0.0 3.0 0.00 0.40 0.00 76 1016.0
20260905161605 90 336 0.0 1.0 0.00 0.40 0.00 77 1016.0
20260905161104 90 335 1.0 5.0 0.00 0.40 0.00 76 1016.0
20260905160605 89 60 0.0 0.0 0.00 0.40 0.00 77 1016.0
20260905160108 89 92 0.0 0.0 0.00 0.40 0.00 77 1016.0
20260905155604 89 300 0.0 0.0 0.00 0.40 0.00 78 1016.1
20260905155105 89 300 0.0 0.0 0.00 0.40 0.00 80 1016.2
20260905154604 89 322 0.0 3.0 0.00 0.40 0.00 77 1016.2
20260905154105 89 164 0.0 1.0 0.00 0.40 0.00 78 1016.2